Time,TemperatureF,DewpointF,PressureIn,WindDirection,WindDirectionDegrees,WindSpeedMPH,WindSpeedGustMPH,Humidity,HourlyPrecipIn,Conditions,Clouds,dailyrainin,SoftwareType,DateUTC
2013-08-23 00:04:00,72.4,71.0,29.85,NW,317,2.0,17.0,96,0.00,,,0.00,weatherlink.com 1.10,2013-08-23 04:04:00,
2013-08-23 00:19:00,72.2,71.0,29.84,SSW,203,3.0,13.0,96,0.00,,,0.00,weatherlink.com 1.10,2013-08-23 04:19:00,
2013-08-23 00:34:00,72.0,71.0,29.84,West,269,5.0,15.0,96,0.00,,,0.00,weatherlink.com 1.10,2013-08-23 04:34:00,
2013-08-23 00:49:00,72.3,71.0,29.84,WNW,290,2.0,15.0,96,0.00,,,0.00,weatherlink.com 1.10,2013-08-23 04:49:00,
2013-08-23 01:04:00,72.5,71.0,29.84,WSW,245,8.0,13.0,95,0.00,,,0.00,weatherlink.com 1.10,2013-08-23 05:04:00,
2013-08-23 01:19:00,72.7,72.0,29.83,WNW,288,1.0,14.0,96,0.00,,,0.00,weatherlink.com 1.10,2013-08-23 05:19:00,
2013-08-23 01:34:00,72.7,71.0,29.83,WSW,243,3.0,16.0,95,0.00,,,0.00,weatherlink.com 1.10,2013-08-23 05:34:00,
2013-08-23 01:49:00,72.4,71.0,29.83,WNW,295,4.0,9.0,95,0.00,,,0.00,weatherlink.com 1.10,2013-08-23 05:49:00,
2013-08-23 02:04:00,72.2,71.0,29.82,NNW,332,4.0,9.0,95,0.00,,,0.00,weatherlink.com 1.10,2013-08-23 06:04:00,
2013-08-23 02:19:00,71.8,70.0,29.82,NW,307,2.0,10.0,94,0.00,,,0.00,weatherlink.com 1.10,2013-08-23 06:19:00,
2013-08-23 02:34:00,71.4,70.0,29.83,South,184,4.0,11.0,94,0.00,,,0.00,weatherlink.com 1.10,2013-08-23 06:34:00,
2013-08-23 02:49:00,71.4,70.0,29.82,SW,214,3.0,8.0,95,0.00,,,0.00,weatherlink.com 1.10,2013-08-23 06:49:00,
2013-08-23 03:04:00,71.5,70.0,29.82,WNW,285,2.0,11.0,95,0.00,,,0.00,weatherlink.com 1.10,2013-08-23 07:04:00,
2013-08-23 03:19:00,71.5,70.0,29.81,West,264,3.0,9.0,95,0.00,,,0.00,weatherlink.com 1.10,2013-08-23 07:19:00,
2013-08-23 03:34:00,71.5,70.0,29.82,WSW,240,7.0,10.0,95,0.00,,,0.00,weatherlink.com 1.10,2013-08-23 07:34:00,
2013-08-23 03:49:00,71.2,70.0,29.81,SW,221,1.0,8.0,95,0.00,,,0.00,weatherlink.com 1.10,2013-08-23 07:49:00,
2013-08-23 04:04:00,70.7,69.0,29.81,WNW,290,0.0,4.0,95,0.00,,,0.00,weatherlink.com 1.10,2013-08-23 08:04:00,
2013-08-23 04:19:00,70.3,69.0,29.81,West,280,2.0,3.0,96,0.00,,,0.00,weatherlink.com 1.10,2013-08-23 08:19:00,
2013-08-23 04:34:00,70.2,69.0,29.81,WNW,295,0.0,4.0,96,0.00,,,0.00,weatherlink.com 1.10,2013-08-23 08:34:00,
2013-08-23 04:49:00,69.9,69.0,29.81,WNW,297,0.0,3.0,96,0.00,,,0.00,weatherlink.com 1.10,2013-08-23 08:49:00,
2013-08-23 05:04:00,69.6,69.0,29.81,SW,225,0.0,3.0,96,0.00,,,0.00,weatherlink.com 1.10,2013-08-23 09:04:00,
2013-08-23 05:19:00,69.4,69.0,29.82,West,277,1.0,1.0,97,0.00,,,0.00,weatherlink.com 1.10,2013-08-23 09:19:00,
2013-08-23 05:34:00,69.1,68.0,29.82,West,264,0.0,1.0,97,0.00,,,0.00,weatherlink.com 1.10,2013-08-23 09:34:00,
2013-08-23 05:49:00,69.0,68.0,29.83,NNW,334,0.0,2.0,97,0.00,,,0.00,weatherlink.com 1.10,2013-08-23 09:49:00,
2013-08-23 06:04:00,68.8,68.0,29.83,WSW,238,0.0,1.0,97,0.00,,,0.00,weatherlink.com 1.10,2013-08-23 10:04:00,
2013-08-23 06:19:00,68.8,68.0,29.84,WSW,238,0.0,0.0,97,0.00,,,0.00,weatherlink.com 1.10,2013-08-23 10:19:00,
2013-08-23 06:34:00,68.9,68.0,29.84,NW,321,0.0,2.0,97,0.00,,,0.00,weatherlink.com 1.10,2013-08-23 10:34:00,
2013-08-23 06:49:00,69.6,69.0,29.85,NW,315,0.0,2.0,97,0.00,,,0.00,weatherlink.com 1.10,2013-08-23 10:49:00,
2013-08-23 07:04:00,70.1,69.0,29.85,NW,309,4.0,8.0,97,0.00,,,0.00,weatherlink.com 1.10,2013-08-23 11:04:00,
2013-08-23 07:19:00,70.5,69.0,29.85,NW,315,5.0,10.0,94,0.00,,,0.00,weatherlink.com 1.10,2013-08-23 11:19:00,
2013-08-23 07:34:00,70.6,68.0,29.86,North,352,5.0,12.0,92,0.00,,,0.00,weatherlink.com 1.10,2013-08-23 11:34:00,
2013-08-23 07:50:00,70.7,68.0,29.86,NW,312,5.0,13.0,90,0.00,,,0.00,weatherlink.com 1.10,2013-08-23 11:50:00,
2013-08-23 08:05:00,70.8,68.0,29.86,NW,324,4.0,14.0,89,0.00,,,0.00,weatherlink.com 1.10,2013-08-23 12:05:00,
2013-08-23 08:20:00,71.3,67.0,29.86,WNW,300,6.0,15.0,87,0.00,,,0.00,weatherlink.com 1.10,2013-08-23 12:20:00,
2013-08-23 08:35:00,71.8,67.0,29.87,NW,316,10.0,17.0,85,0.00,,,0.00,weatherlink.com 1.10,2013-08-23 12:35:00,
2013-08-23 08:50:00,72.2,67.0,29.88,NNW,328,2.0,15.0,84,0.00,,,0.00,weatherlink.com 1.10,2013-08-23 12:50:00,
2013-08-23 09:05:00,72.4,67.0,29.88,NNW,327,3.0,11.0,83,0.00,,,0.00,weatherlink.com 1.10,2013-08-23 13:05:00,
2013-08-23 09:20:00,73.2,66.0,29.88,NW,326,3.0,13.0,78,0.00,,,0.00,weatherlink.com 1.10,2013-08-23 13:20:00,
2013-08-23 09:35:00,73.7,64.0,29.89,NE,37,7.0,12.0,72,0.00,,,0.00,weatherlink.com 1.10,2013-08-23 13:35:00,
2013-08-23 09:50:00,73.2,64.0,29.90,NW,312,6.0,13.0,73,0.00,,,0.00,weatherlink.com 1.10,2013-08-23 13:50:00,
2013-08-23 10:05:00,73.7,64.0,29.90,WNW,293,3.0,11.0,72,0.00,,,0.00,weatherlink.com 1.10,2013-08-23 14:05:00,
2013-08-23 10:20:00,73.1,63.0,29.90,North,360,9.0,19.0,71,0.00,,,0.00,weatherlink.com 1.10,2013-08-23 14:20:00,
2013-08-23 10:35:00,73.0,63.0,29.91,North,1,4.0,15.0,72,0.00,,,0.00,weatherlink.com 1.10,2013-08-23 14:35:00,
2013-08-23 10:50:00,73.0,64.0,29.91,ENE,60,6.0,12.0,73,0.00,,,0.00,weatherlink.com 1.10,2013-08-23 14:50:00,
2013-08-23 11:05:00,73.2,65.0,29.91,North,11,5.0,18.0,75,0.00,,,0.00,weatherlink.com 1.10,2013-08-23 15:05:00,
2013-08-23 11:20:00,73.3,65.0,29.91,East,98,4.0,14.0,74,0.00,,,0.00,weatherlink.com 1.10,2013-08-23 15:20:00,
2013-08-23 11:35:00,73.2,64.0,29.92,NNW,337,11.0,14.0,73,0.00,,,0.00,weatherlink.com 1.10,2013-08-23 15:35:00,
2013-08-23 11:50:00,73.1,64.0,29.92,ENE,60,4.0,14.0,74,0.00,,,0.00,weatherlink.com 1.10,2013-08-23 15:50:00,
2013-08-23 12:05:00,73.0,64.0,29.92,WNW,294,5.0,14.0,73,0.00,,,0.00,weatherlink.com 1.10,2013-08-23 16:05:00,
2013-08-23 12:20:00,72.1,63.0,29.93,NNE,32,7.0,14.0,73,0.00,,,0.00,weatherlink.com 1.10,2013-08-23 16:20:00,
2013-08-23 12:35:00,71.4,62.0,29.93,NNW,340,4.0,16.0,73,0.00,,,0.00,weatherlink.com 1.10,2013-08-23 16:35:00,
2013-08-23 12:50:00,71.0,62.0,29.93,WNW,295,8.0,16.0,74,0.00,,,0.00,weatherlink.com 1.10,2013-08-23 16:50:00,
2013-08-23 13:05:00,71.8,63.0,29.93,NE,36,13.0,15.0,73,0.00,,,0.00,weatherlink.com 1.10,2013-08-23 17:05:00,
2013-08-23 13:20:00,72.7,63.0,29.93,NE,41,11.0,11.0,72,0.00,,,0.00,weatherlink.com 1.10,2013-08-23 17:20:00,
2013-08-23 13:35:00,72.7,63.0,29.93,NNW,335,16.0,16.0,72,0.00,,,0.00,weatherlink.com 1.10,2013-08-23 17:35:00,
2013-08-23 13:50:00,72.0,63.0,29.94,North,349,7.0,17.0,72,0.00,,,0.00,weatherlink.com 1.10,2013-08-23 17:50:00,
2013-08-23 14:05:00,72.0,63.0,29.94,NW,312,4.0,16.0,72,0.00,,,0.00,weatherlink.com 1.10,2013-08-23 18:05:00,
2013-08-23 14:20:00,72.6,63.0,29.95,WNW,293,7.0,14.0,71,0.00,,,0.00,weatherlink.com 1.10,2013-08-23 18:20:00,
2013-08-23 14:35:00,71.4,62.0,29.96,NW,314,3.0,14.0,71,0.00,,,0.00,weatherlink.com 1.10,2013-08-23 18:35:00,
2013-08-23 14:50:00,72.1,61.0,29.95,NNE,16,4.0,13.0,69,0.00,,,0.00,weatherlink.com 1.10,2013-08-23 18:50:00,
2013-08-23 15:05:00,71.6,61.0,29.96,NNE,17,5.0,15.0,70,0.00,,,0.00,weatherlink.com 1.10,2013-08-23 19:05:00,
2013-08-23 15:20:00,71.4,60.0,29.96,NNE,21,9.0,17.0,67,0.00,,,0.00,weatherlink.com 1.10,2013-08-23 19:20:00,
2013-08-23 15:35:00,72.0,60.0,29.96,East,82,9.0,13.0,67,0.00,,,0.00,weatherlink.com 1.10,2013-08-23 19:35:00,
2013-08-23 15:50:00,72.3,61.0,29.96,NE,53,6.0,13.0,68,0.00,,,0.00,weatherlink.com 1.10,2013-08-23 19:50:00,
2013-08-23 16:05:00,72.1,60.0,29.96,NE,53,9.0,13.0,66,0.00,,,0.00,weatherlink.com 1.10,2013-08-23 20:05:00,
2013-08-23 16:20:00,71.9,60.0,29.97,North,7,11.0,13.0,67,0.00,,,0.00,weatherlink.com 1.10,2013-08-23 20:20:00,
2013-08-23 16:36:00,71.8,60.0,29.97,NW,312,8.0,13.0,67,0.00,,,0.00,weatherlink.com 1.10,2013-08-23 20:36:00,
2013-08-23 16:51:00,71.4,60.0,29.97,NNE,15,5.0,13.0,68,0.00,,,0.00,weatherlink.com 1.10,2013-08-23 20:51:00,
2013-08-23 17:06:00,70.5,60.0,29.98,WSW,258,4.0,14.0,69,0.00,,,0.00,weatherlink.com 1.10,2013-08-23 21:06:00,
2013-08-23 17:21:00,70.1,60.0,29.97,North,352,7.0,12.0,70,0.00,,,0.00,weatherlink.com 1.10,2013-08-23 21:21:00,
2013-08-23 17:36:00,69.4,60.0,29.98,ENE,59,6.0,12.0,73,0.00,,,0.00,weatherlink.com 1.10,2013-08-23 21:36:00,
2013-08-23 17:51:00,69.1,61.0,29.98,East,100,8.0,12.0,75,0.00,,,0.00,weatherlink.com 1.10,2013-08-23 21:51:00,
2013-08-23 18:06:00,68.6,61.0,29.98,South,190,4.0,12.0,77,0.00,,,0.00,weatherlink.com 1.10,2013-08-23 22:06:00,
2013-08-23 18:21:00,68.0,61.0,29.98,NNW,344,2.0,7.0,78,0.00,,,0.00,weatherlink.com 1.10,2013-08-23 22:21:00,
2013-08-23 18:36:00,67.3,61.0,29.98,ENE,57,2.0,7.0,80,0.00,,,0.00,weatherlink.com 1.10,2013-08-23 22:36:00,
2013-08-23 18:51:00,66.9,61.0,29.98,NE,43,0.0,6.0,81,0.00,,,0.00,weatherlink.com 1.10,2013-08-23 22:51:00,
2013-08-23 19:06:00,66.6,61.0,29.99,NNE,25,3.0,4.0,82,0.00,,,0.00,weatherlink.com 1.10,2013-08-23 23:06:00,
2013-08-23 19:21:00,66.1,61.0,29.99,NE,46,3.0,4.0,83,0.00,,,0.00,weatherlink.com 1.10,2013-08-23 23:21:00,
2013-08-23 19:36:00,65.6,61.0,29.99,East,86,0.0,4.0,84,0.00,,,0.00,weatherlink.com 1.10,2013-08-23 23:36:00,
2013-08-23 19:51:00,65.4,61.0,30.00,East,80,1.0,2.0,86,0.00,,,0.00,weatherlink.com 1.10,2013-08-23 23:51:00,
2013-08-23 20:06:00,65.3,61.0,30.00,NNE,27,0.0,2.0,86,0.00,,,0.00,weatherlink.com 1.10,2013-08-24 00:06:00,
2013-08-23 20:21:00,64.8,61.0,30.01,ENE,75,0.0,1.0,87,0.00,,,0.00,weatherlink.com 1.10,2013-08-24 00:21:00,
2013-08-23 20:36:00,64.4,61.0,30.02,NNE,19,0.0,2.0,88,0.00,,,0.00,weatherlink.com 1.10,2013-08-24 00:36:00,
2013-08-23 20:51:00,63.5,60.0,30.03,NNE,19,0.0,0.0,89,0.00,,,0.00,weatherlink.com 1.10,2013-08-24 00:51:00,
2013-08-23 21:06:00,62.8,60.0,30.04,NNE,19,0.0,0.0,91,0.00,,,0.00,weatherlink.com 1.10,2013-08-24 01:06:00,
2013-08-23 21:21:00,62.6,60.0,30.04,NW,309,2.0,2.0,92,0.00,,,0.00,weatherlink.com 1.10,2013-08-24 01:21:00,
2013-08-23 21:36:00,62.9,60.0,30.04,NW,309,1.0,3.0,91,0.00,,,0.00,weatherlink.com 1.10,2013-08-24 01:36:00,
2013-08-23 21:51:00,62.9,61.0,30.04,NW,312,1.0,2.0,92,0.00,,,0.00,weatherlink.com 1.10,2013-08-24 01:51:00,
2013-08-23 22:06:00,62.8,61.0,30.04,NW,309,2.0,3.0,92,0.00,,,0.00,weatherlink.com 1.10,2013-08-24 02:06:00,
2013-08-23 22:21:00,62.9,61.0,30.05,NW,309,2.0,4.0,92,0.00,,,0.00,weatherlink.com 1.10,2013-08-24 02:21:00,
2013-08-23 22:36:00,63.1,61.0,30.05,NW,309,2.0,4.0,91,0.00,,,0.00,weatherlink.com 1.10,2013-08-24 02:36:00,
2013-08-23 22:51:00,63.2,60.0,30.05,NW,309,3.0,4.0,90,0.00,,,0.00,weatherlink.com 1.10,2013-08-24 02:51:00,
2013-08-23 23:06:00,63.2,60.0,30.06,NW,314,4.0,5.0,90,0.00,,,0.00,weatherlink.com 1.10,2013-08-24 03:06:00,
2013-08-23 23:21:00,63.0,60.0,30.07,NW,315,1.0,3.0,90,0.00,,,0.00,weatherlink.com 1.10,2013-08-24 03:21:00,
2013-08-23 23:36:00,62.5,60.0,30.07,NW,315,2.0,3.0,91,0.00,,,0.00,weatherlink.com 1.10,2013-08-24 03:36:00,
2013-08-23 23:51:00,62.3,60.0,30.07,NNW,330,0.0,2.0,91,0.00,,,0.00,weatherlink.com 1.10,2013-08-24 03:51:00,